Weather History for KLNC - May, 2013

Change the Weather History Date:

Friday, May 24, 2013

  Actual Average (KRBD) Record (KRBD)
Temperature  
Mean Temperature 76 °F -  
Max Temperature 84 °F 83 °F 93 °F (2012)
Min Temperature 67 °F 64 °F 60 °F (2001)
Cooling Degree Days 10    
Growing Degree Days 26 (Base 50)    
Moisture  
Dew Point 70 °F    
Average Humidity 84    
Maximum Humidity 99    
Minimum Humidity 66    
Precipitation  
Precipitation 0.06 in - - ()
Sea Level Pressure  
Sea Level Pressure 30.10 in    
Wind  
Wind Speed 4 mph (SE)    
Max Wind Speed 12 mph    
Max Gust Speed 22 mph    
Visibility 8 miles    
Events Rain , Thunderstorm    
Averages and records for this station are not official NWS values.
T = Trace of Precipitation, MM = Missing Value Source: NWS Daily Summary

Daily Weather History Graph

Daily Weather History Graph

Search for Another Location

Airport or City:

Trip Planner

Search our weather history database for the weather conditions in past years. The results will help you decide how hot, cold, wet, or windy it might be!

Date:

Astronomy

May. 24, 2013 Rise Set
Actual Time 6:23 AM CDT 8:24 PM CDT
Civil Twilight 5:55 AM CDT 8:52 PM CDT
Nautical Twilight 5:21 AM CDT 9:26 PM CDT
Astronomical Twilight 4:45 AM CDT 10:02 PM CDT
Moon 8:09 PM CDT (5/24) 5:53 AM CDT (5/24)
Length of Visible Light 14h 57m
Length of Day
14h 01m
Full, 100% of the Moon is Illuminated
May 24
Full
May 24
Full
May 31
Last Quarter
Jun 8
New
Jun 16
First Quarter

Hourly Weather History & Observations

Time (CDT) Temp. Heat Index Dew Point Humidity Pressure Visibility Wind Dir Wind Speed Gust Speed Precip Events Conditions
12:15 AM 74.7 °F - 70.3 °F 86% 30.01 in 10.0 mi SE 6.9 mph - N/A   Clear
12:35 AM 74.3 °F - 70.7 °F 88% 30.02 in 7.0 mi East 4.6 mph - N/A   Clear
12:55 AM 74.3 °F - 70.7 °F 88% 30.03 in 7.0 mi ESE 3.5 mph - N/A   Clear
1:15 AM 74.1 °F - 70.5 °F 88% 30.03 in 7.0 mi ESE 4.6 mph - N/A   Clear
1:35 AM 73.2 °F - 70.3 °F 91% 30.04 in 7.0 mi Calm Calm - N/A   Clear
1:55 AM 71.6 °F - 70.2 °F 95% 30.04 in 5.0 mi Calm Calm - N/A   Clear
2:15 AM 72.0 °F - 70.0 °F 93% 30.02 in 7.0 mi SE 3.5 mph - N/A   Clear
2:35 AM 72.3 °F - 70.0 °F 92% 30.03 in 7.0 mi South 3.5 mph - N/A   Clear
2:55 AM 72.7 °F - 69.8 °F 91% 30.03 in 7.0 mi Calm Calm - N/A   Clear
3:15 AM 72.1 °F - 69.6 °F 92% 30.03 in 7.0 mi Calm Calm - N/A   Clear
3:35 AM 71.8 °F - 69.6 °F 93% 30.03 in 7.0 mi Calm Calm - N/A   Clear
3:55 AM 70.7 °F - 69.3 °F 95% 30.04 in 5.0 mi Calm Calm - N/A   Clear
4:15 AM 71.1 °F - 69.4 °F 95% 30.04 in 5.0 mi Calm Calm - N/A   Clear
4:35 AM 70.2 °F - 69.1 °F 96% 30.05 in 4.0 mi ENE 3.5 mph - N/A   Clear
4:55 AM 70.7 °F - 69.6 °F 96% 30.05 in 5.0 mi East 3.5 mph - N/A   Clear
5:15 AM 70.7 °F - 69.8 °F 97% 30.05 in 4.0 mi ENE 3.5 mph - N/A   Clear
5:35 AM 70.7 °F - 69.8 °F 97% 30.05 in 5.0 mi SE 3.5 mph - N/A   Clear
5:55 AM 70.3 °F - 69.4 °F 97% 30.05 in 4.0 mi Calm Calm - N/A   Clear
6:15 AM 70.2 °F - 69.4 °F 98% 30.06 in 4.0 mi ESE 3.5 mph - N/A   Clear
6:35 AM 70.3 °F - 69.4 °F 97% 30.07 in 4.0 mi Calm Calm - N/A   Clear
6:55 AM 70.2 °F - 69.8 °F 99% 30.06 in 2.0 mi East 3.5 mph - N/A   Clear
7:15 AM 70.7 °F - 70.0 °F 98% 30.07 in 2.0 mi Calm Calm - N/A   Clear
7:35 AM 71.4 °F - 70.7 °F 98% 30.10 in 2.0 mi Calm Calm - N/A   Clear
7:55 AM 72.3 °F - 71.4 °F 97% 30.11 in 2.5 mi Calm Calm - N/A   Clear
8:15 AM 73.2 °F - 72.0 °F 96% 30.12 in 3.0 mi East 3.5 mph - N/A   Clear
8:35 AM 74.3 °F - 72.1 °F 93% 30.13 in 4.0 mi ESE 3.5 mph - N/A   Clear
8:55 AM 75.6 °F - 72.5 °F 90% 30.13 in 5.0 mi East 4.6 mph - N/A   Scattered Clouds
9:15 AM 75.7 °F - 72.3 °F 89% 30.14 in 5.0 mi East 3.5 mph - N/A   Mostly Cloudy
9:35 AM 76.3 °F - 72.7 °F 89% 30.15 in 5.0 mi SE 3.5 mph - N/A   Overcast
9:55 AM 77.4 °F - 72.5 °F 85% 30.14 in 7.0 mi SE 3.5 mph - N/A   Overcast
10:15 AM 77.9 °F - 72.5 °F 83% 30.14 in 7.0 mi ESE 5.8 mph - N/A   Overcast
10:35 AM 78.8 °F - 72.5 °F 81% 30.14 in 7.0 mi East 6.9 mph - N/A   Overcast
10:55 AM 79.2 °F - 72.3 °F 79% 30.15 in 7.0 mi SE 9.2 mph - N/A   Mostly Cloudy
11:15 AM 79.9 °F - 72.7 °F 79% 30.16 in 10.0 mi SE 9.2 mph - N/A   Mostly Cloudy
11:35 AM 80.6 °F 84.9 °F 72.5 °F 76% 30.15 in 10.0 mi SE 5.8 mph - N/A   Mostly Cloudy
11:55 AM 82.2 °F 86.9 °F 71.6 °F 70% 30.16 in 10.0 mi SE 8.1 mph - N/A   Mostly Cloudy
12:15 PM 81.7 °F 85.8 °F 71.2 °F 70% 30.16 in 10.0 mi SE 6.9 mph - N/A   Scattered Clouds
12:35 PM 82.6 °F 87.6 °F 72.0 °F 70% 30.16 in 10.0 mi SSE 9.2 mph - N/A   Scattered Clouds
12:55 PM 82.0 °F 86.7 °F 71.8 °F 71% 30.15 in 10.0 mi SE 5.8 mph - N/A   Mostly Cloudy
1:15 PM 82.6 °F 87.1 °F 71.2 °F 68% 30.15 in 10.0 mi ESE 9.2 mph - N/A   Scattered Clouds
1:35 PM 82.4 °F 86.7 °F 71.1 °F 68% 30.14 in 10.0 mi ESE 6.9 mph - N/A   Scattered Clouds
1:55 PM 82.8 °F 87.4 °F 71.2 °F 68% 30.13 in 10.0 mi SE 10.4 mph - N/A   Mostly Cloudy
2:15 PM 84.0 °F 89.6 °F 72.0 °F 67% 30.13 in 10.0 mi SE 9.2 mph - N/A   Mostly Cloudy
2:35 PM 82.9 °F 88.0 °F 72.0 °F 69% 30.12 in 10.0 mi ESE 5.8 mph - N/A   Scattered Clouds
2:55 PM 83.3 °F 88.2 °F 71.4 °F 67% 30.11 in 7.0 mi SE 9.2 mph - N/A   Scattered Clouds
3:15 PM 83.1 °F 87.6 °F 70.9 °F 66% 30.10 in 7.0 mi ESE 9.2 mph - N/A   Scattered Clouds
3:35 PM 83.1 °F 87.6 °F 70.7 °F 66% 30.10 in 10.0 mi SE 8.1 mph - N/A   Scattered Clouds
3:55 PM 82.8 °F 87.2 °F 70.7 °F 67% 30.08 in 10.0 mi SE 10.4 mph - N/A   Scattered Clouds
4:15 PM 82.4 °F 86.3 °F 70.2 °F 66% 30.06 in 10.0 mi ESE 8.1 mph - N/A   Clear
4:35 PM 82.4 °F 86.5 °F 70.3 °F 67% 30.06 in 10.0 mi ESE 8.1 mph - N/A   Clear
4:55 PM 81.9 °F 85.8 °F 70.2 °F 68% 30.08 in 10.0 mi ESE 6.9 mph - N/A   Clear
5:15 PM 81.5 °F 85.5 °F 70.7 °F 70% 30.08 in 10.0 mi ESE 5.8 mph - N/A   Scattered Clouds
5:35 PM 80.8 °F 84.7 °F 71.6 °F 73% 30.07 in 10.0 mi ESE 4.6 mph - N/A   Mostly Cloudy
5:55 PM 80.4 °F 84.4 °F 72.0 °F 75% 30.07 in 10.0 mi ESE 3.5 mph - N/A   Scattered Clouds
6:15 PM 79.5 °F - 72.3 °F 79% 30.08 in 10.0 mi SE 4.6 mph - N/A   Scattered Clouds
6:35 PM 78.8 °F - 72.3 °F 80% 30.08 in 10.0 mi SE 3.5 mph - N/A   Clear
6:55 PM 77.7 °F - 72.7 °F 84% 30.08 in 10.0 mi SSE 3.5 mph - N/A   Clear
7:15 PM 77.2 °F - 72.7 °F 86% 30.09 in 10.0 mi Calm Calm - N/A   Clear
7:35 PM 77.5 °F - 72.3 °F 84% 30.09 in 10.0 mi Calm Calm - N/A   Scattered Clouds
7:55 PM 77.0 °F - 72.5 °F 86% 30.09 in 10.0 mi Calm Calm - N/A   Scattered Clouds
8:15 PM 72.1 °F - 63.0 °F 73% 30.11 in 10.0 mi WSW 11.5 mph 21.9 mph N/A Rain Light Rain
8:35 PM 68.4 °F - 63.5 °F 84% 30.12 in 10.0 mi West 6.9 mph - N/A Rain Light Rain
8:55 PM 67.6 °F - 64.4 °F 89% 30.12 in 10.0 mi West 6.9 mph - N/A Rain , Thunderstorm Light Thunderstorms and Rain
9:15 PM 68.0 °F - 64.8 °F 89% 30.12 in 10.0 mi WSW 5.8 mph - N/A Thunderstorm Mostly Cloudy
9:35 PM 68.5 °F - 65.1 °F 89% 30.12 in 10.0 mi WSW 9.2 mph - N/A   Mostly Cloudy
9:55 PM 68.9 °F - 65.3 °F 88% 30.13 in 10.0 mi WSW 5.8 mph - N/A   Mostly Cloudy
10:15 PM 68.9 °F - 65.3 °F 88% 30.13 in 10.0 mi WSW 5.8 mph - N/A Thunderstorm Mostly Cloudy
10:35 PM 69.3 °F - 64.8 °F 86% 30.19 in 10.0 mi South 10.4 mph 18.4 mph N/A Rain , Thunderstorm Light Thunderstorms and Rain
10:55 PM 67.8 °F - 65.7 °F 93% 30.19 in 7.0 mi SW 9.2 mph - 0.02 in Rain , Thunderstorm Light Thunderstorms and Rain
11:15 PM 67.1 °F - 65.3 °F 94% 30.18 in 7.0 mi SW 9.2 mph - 0.01 in Rain Rain
11:35 PM 67.3 °F - 65.5 °F 94% 30.18 in 10.0 mi SW 9.2 mph 16.1 mph 0.03 in Rain Light Rain
11:55 PM 67.1 °F - 64.9 °F 93% 30.17 in 10.0 mi West 5.8 mph - 0.04 in Rain Light Rain